Stündliche Wetter Holoskiv

Heute, 22 Juni, Dienstag

Zeit Temperatur Niederschläge Wind Luftdruck Luftfeuchtigkeit
00:00 +19°C° 0 mm 2 m/S 735 mmHg 92%
01:00 +19°C° 0 mm 2 m/S 735 mmHg 92%
02:00 +19°C° 0 mm 2 m/S 735 mmHg 92%
03:00 +20°C° 0 mm 1 m/S 735 mmHg 92%
04:00 +20°C° 0 mm 1 m/S 735 mmHg 92%
05:00 +20°C° 0 mm 1 m/S 735 mmHg 91%
06:00 +20°C° 0 mm 2 m/S 735 mmHg 87%
07:00 +23°C° 0 mm 2 m/S 735 mmHg 84%
08:00 +24°C° 0 mm 3 m/S 736 mmHg 79%
09:00 +26°C° 0 mm 3 m/S 736 mmHg 76%
10:00 +27°C° 0 mm 3 m/S 735 mmHg 72%
11:00 +28°C° 0 mm 3 m/S 735 mmHg 69%
12:00 +29°C° 0.3 mm 3 m/S 735 mmHg 66%
13:00 +29°C° 0.3 mm 3 m/S 735 mmHg 63%
14:00 +29°C° 0.3 mm 4 m/S 735 mmHg 60%
15:00 +29°C° 0.1 mm 4 m/S 735 mmHg 62%
16:00 +29°C° 0.1 mm 3 m/S 735 mmHg 64%
17:00 +29°C° 0.1 mm 3 m/S 735 mmHg 66%
18:00 +27°C° 0 mm 3 m/S 735 mmHg 72%
19:00 +26°C° 0 mm 3 m/S 735 mmHg 78%
20:00 +25°C° 0 mm 2 m/S 735 mmHg 84%
21:00 +24°C° 0 mm 2 m/S 735 mmHg 86%
22:00 +23°C° 0 mm 2 m/S 735 mmHg 88%
23:00 +22°C° 0 mm 1 m/S 736 mmHg 90%

Morgen, 23 Juni, Mittwoch

Zeit Temperatur Niederschläge Wind Luftdruck Luftfeuchtigkeit
00:00 +22°C° 0 mm 1 m/S 736 mmHg 91%
01:00 +21°C° 0 mm 2 m/S 736 mmHg 92%
02:00 +21°C° 0 mm 2 m/S 736 mmHg 93%
03:00 +21°C° 0.1 mm 2 m/S 736 mmHg 93%
04:00 +22°C° 0.1 mm 1 m/S 736 mmHg 93%
05:00 +22°C° 0.1 mm 1 m/S 736 mmHg 93%
06:00 +23°C° 0 mm 1 m/S 737 mmHg 88%
07:00 +25°C° 0 mm 2 m/S 737 mmHg 82%
08:00 +26°C° 0 mm 2 m/S 737 mmHg 77%
09:00 +27°C° 0 mm 2 m/S 737 mmHg 71%
10:00 +28°C° 0 mm 2 m/S 737 mmHg 66%
11:00 +29°C° 0 mm 2 m/S 737 mmHg 60%
12:00 +30°C° 0 mm 2 m/S 737 mmHg 58%
13:00 +30°C° 0 mm 2 m/S 738 mmHg 56%
14:00 +31°C° 0 mm 2 m/S 738 mmHg 54%
15:00 +31°C° 0 mm 2 m/S 738 mmHg 57%
16:00 +31°C° 0 mm 2 m/S 738 mmHg 61%
17:00 +30°C° 0 mm 2 m/S 738 mmHg 64%
18:00 +29°C° 0 mm 2 m/S 738 mmHg 69%
19:00 +27°C° 0 mm 2 m/S 737 mmHg 75%
20:00 +26°C° 0 mm 1 m/S 737 mmHg 80%
21:00 +25°C° 0 mm 1 m/S 737 mmHg 83%
22:00 +24°C° 0 mm 1 m/S 738 mmHg 86%
23:00 +23°C° 0 mm 1 m/S 738 mmHg 88%

übermorgen, 24 Juni, Donnerstag

Zeit Temperatur Niederschläge Wind Luftdruck Luftfeuchtigkeit
00:00 +23°C° 0.4 mm 1 m/S 738 mmHg 90%
01:00 +22°C° 0.4 mm 1 m/S 738 mmHg 91%
02:00 +22°C° 0.4 mm 1 m/S 738 mmHg 93%
03:00 +22°C° 0 mm 1 m/S 738 mmHg 93%
04:00 +22°C° 0 mm 1 m/S 738 mmHg 93%
05:00 +20°C° 0 mm 0 m/S 738 mmHg 93%
06:00 +24°C° 0 mm 1 m/S 738 mmHg 89%
07:00 +25°C° 0 mm 1 m/S 738 mmHg 84%
08:00 +27°C° 0 mm 2 m/S 738 mmHg 80%
09:00 +28°C° 0 mm 2 m/S 738 mmHg 75%
10:00 +29°C° 0 mm 2 m/S 739 mmHg 69%
11:00 +30°C° 0 mm 2 m/S 739 mmHg 64%
12:00 +31°C° 0 mm 2 m/S 739 mmHg 61%
13:00 +31°C° 0 mm 2 m/S 739 mmHg 57%
14:00 +32°C° 0 mm 2 m/S 739 mmHg 53%
15:00 +31°C° 0 mm 2 m/S 738 mmHg 55%
16:00 +31°C° 0 mm 2 m/S 738 mmHg 57%
17:00 +31°C° 0 mm 2 m/S 738 mmHg 58%
18:00 +30°C° 0 mm 2 m/S 738 mmHg 64%
19:00 +28°C° 0 mm 1 m/S 738 mmHg 69%
20:00 +26°C° 0 mm 1 m/S 738 mmHg 75%
21:00 +25°C° 0 mm 1 m/S 738 mmHg 76%
22:00 +25°C° 0 mm 1 m/S 738 mmHg 78%
23:00 +22°C° 0 mm 0 m/S 738 mmHg 80%

25 Juni, Freitag

Zeit Temperatur Niederschläge Wind Luftdruck Luftfeuchtigkeit
00:00 +21°C° 0 mm 0 m/S 738 mmHg 81%
01:00 +21°C° 0 mm 0 m/S 737 mmHg 82%
02:00 +21°C° 0 mm 0 m/S 737 mmHg 83%
03:00 +21°C° 0 mm 0 m/S 737 mmHg 83%
04:00 +21°C° 0 mm 0 m/S 737 mmHg 83%
05:00 +21°C° 0 mm 0 m/S 737 mmHg 83%
06:00 +24°C° 0 mm 1 m/S 737 mmHg 80%
07:00 +26°C° 0 mm 1 m/S 737 mmHg 76%
08:00 +27°C° 0 mm 1 m/S 737 mmHg 73%
09:00 +28°C° 0 mm 2 m/S 737 mmHg 69%
10:00 +29°C° 0 mm 2 m/S 737 mmHg 66%
11:00 +30°C° 0 mm 2 m/S 737 mmHg 62%
12:00 +31°C° 0 mm 2 m/S 737 mmHg 60%
13:00 +31°C° 0 mm 2 m/S 737 mmHg 58%
14:00 +32°C° 0 mm 2 m/S 737 mmHg 55%
15:00 +32°C° 0 mm 2 m/S 737 mmHg 58%
16:00 +31°C° 0 mm 2 m/S 737 mmHg 61%
17:00 +31°C° 0 mm 3 m/S 736 mmHg 64%
18:00 +30°C° 0.1 mm 3 m/S 736 mmHg 70%
19:00 +28°C° 0.1 mm 3 m/S 735 mmHg 76%
20:00 +26°C° 0.1 mm 3 m/S 735 mmHg 82%
21:00 +25°C° 0 mm 2 m/S 735 mmHg 84%
22:00 +24°C° 0 mm 2 m/S 735 mmHg 86%
23:00 +23°C° 0 mm 2 m/S 735 mmHg 87%

26 Juni, Samstag

Zeit Temperatur Niederschläge Wind Luftdruck Luftfeuchtigkeit
00:00 +23°C° 0.6 mm 1 m/S 735 mmHg 88%
01:00 +22°C° 0.6 mm 1 m/S 735 mmHg 88%
02:00 +22°C° 0.6 mm 1 m/S 735 mmHg 89%
03:00 +21°C° 0.4 mm 1 m/S 736 mmHg 89%
04:00 +21°C° 0.4 mm 1 m/S 736 mmHg 89%
05:00 +21°C° 0.4 mm 1 m/S 736 mmHg 90%
06:00 +21°C° 0.1 mm 2 m/S 736 mmHg 87%
07:00 +22°C° 0.1 mm 3 m/S 736 mmHg 84%
08:00 +24°C° 0.1 mm 3 m/S 736 mmHg 81%
09:00 +25°C° 0 mm 4 m/S 736 mmHg 78%
10:00 +26°C° 0 mm 4 m/S 737 mmHg 76%
11:00 +27°C° 0 mm 5 m/S 737 mmHg 73%
12:00 +27°C° 0.1 mm 5 m/S 737 mmHg 73%
13:00 +26°C° 0.1 mm 4 m/S 737 mmHg 73%
14:00 +26°C° 0.1 mm 4 m/S 737 mmHg 73%
15:00 +26°C° 0.1 mm 4 m/S 737 mmHg 75%
16:00 +26°C° 0.1 mm 4 m/S 736 mmHg 77%
17:00 +26°C° 0.1 mm 3 m/S 736 mmHg 78%
18:00 +24°C° 0.4 mm 3 m/S 736 mmHg 82%
19:00 +22°C° 0.4 mm 3 m/S 736 mmHg 85%
20:00 +20°C° 0.4 mm 4 m/S 736 mmHg 89%
21:00 +20°C° 0.3 mm 4 m/S 736 mmHg 89%
22:00 +19°C° 0.3 mm 4 m/S 736 mmHg 90%
23:00 +19°C° 0.3 mm 4 m/S 736 mmHg 90%

27 Juni, Sonntag

Zeit Temperatur Niederschläge Wind Luftdruck Luftfeuchtigkeit
00:00 +18°C° 0.5 mm 4 m/S 736 mmHg 92%
01:00 +18°C° 0.5 mm 3 m/S 736 mmHg 93%
02:00 +18°C° 0.5 mm 3 m/S 736 mmHg 95%
03:00 +17°C° 0.6 mm 3 m/S 736 mmHg 94%
04:00 +17°C° 0.6 mm 3 m/S 737 mmHg 94%
05:00 +17°C° 0.6 mm 3 m/S 737 mmHg 94%
06:00 +18°C° 0.1 mm 3 m/S 737 mmHg 93%
07:00 +18°C° 0.1 mm 4 m/S 737 mmHg 91%
08:00 +18°C° 0.1 mm 4 m/S 737 mmHg 90%
09:00 +19°C° 0.2 mm 4 m/S 738 mmHg 88%
10:00 +19°C° 0.2 mm 4 m/S 738 mmHg 86%
11:00 +20°C° 0.2 mm 4 m/S 738 mmHg 83%
12:00 +20°C° 0 mm 4 m/S 738 mmHg 80%
13:00 +21°C° 0 mm 4 m/S 738 mmHg 76%
14:00 +22°C° 0 mm 4 m/S 739 mmHg 72%
15:00 +22°C° 0 mm 3 m/S 738 mmHg 72%
16:00 +22°C° 0 mm 3 m/S 738 mmHg 72%
17:00 +22°C° 0 mm 3 m/S 738 mmHg 72%
18:00 +21°C° 0 mm 3 m/S 738 mmHg 77%
19:00 +20°C° 0 mm 2 m/S 738 mmHg 83%
20:00 +18°C° 0 mm 2 m/S 738 mmHg 89%
21:00 +18°C° 0 mm 2 m/S 738 mmHg 90%
22:00 +17°C° 0 mm 2 m/S 738 mmHg 91%
23:00 +16°C° 0 mm 2 m/S 738 mmHg 92%
Mehr zeigen

Wir brauchen deine Erlaubnis

Meteoprog und unser Service Anbieter werden persönliche Daten aufbewahren, so wie Cookies, Geräte Bezeichnung oder ähnliche Technologien von deinem Gerät und Prozess, so wie Persönliche Daten Inhalte und Werbungen, genauso wie social Media und den Verkehr zu analysieren.

  • Aufbewahrung und/oder Zugang zu deiner Geräte Informationen.

    Cookies, Geräte Bezeichnung oder andere Informationen, können aufbewahrt oder Zugang zu deinem Gerät erhalten, für den Grund, der oben angegeben wird.

  • Personalisierte Werbung und Inhalte, Messungen, Einblick in das Publikum und Produkt Entwicklung.

    Werbungen und Inhalte können personalisiert werden, basierend auf ein Profil. Mehr Daten können besser personalisierte Werbungen und Inhalte hinzufügen. Werbung und Inhalte können gezeigt und gemessen werden. Einblicke über das Publikum, welche die Werbung gesehen haben und den Inhalt, können abgeleitet werden. So wie Daten können genutzt werden, um es zu verbessern oder die Benutzer Erfahrung zu verbessern das System und die Software.

Wenn du “Ich stimme zu” klickst, erlaubst du uns, die Cookies zu benutzen die Geräte Bezeichnung, den Web oder ähnliche Technologien zu benutzen. Deine Settings, können in deinem Gerät bei deinem Browser geändert werden.

Für den bestimmten Zweck, berechtigten Interessen beruhen darauf, mehr als auf den Inhalt. Du kannst mehr darüber in unseren Privaten und Cookie Politik lesen.